Burns, OR

2:57 AM PDT on September 24, 2017 (GMT -0700)
Burns Municipal

Weather History for KBNO - December, 2013

Change the Weather History Date:

Monday, December 9, 2013

  Actual Average Record
Temperature  
Mean Temperature -3 °F 25 °F  
Max Temperature 14 °F 35 °F 54 °F (1981)
Min Temperature -21 °F 15 °F -26 °F (1972)
Degree Days  
Heating Degree Days 68 40  
Month to date heating degree days 482 353  
Since 1 July heating degree days 2405 2354  
Cooling Degree Days 0 0  
Month to date cooling degree days 0 0  
Year to date cooling degree days 372 215  
Moisture  
Dew Point -10 °F    
Average Humidity 69    
Maximum Humidity 86    
Minimum Humidity 51    
Precipitation  
Precipitation 0.00 in 0.04 in 0.44 in (1939)
Month to date precipitation 0.17 0.44  
Year to date precipitation 6.86 9.81  
Sea Level Pressure  
Sea Level Pressure 30.71 in    
Wind  
Wind Speed 2 mph (WSW)    
Max Wind Speed 8 mph    
Max Gust Speed 8 mph    
Visibility 10 miles    
Events      
T = Trace of Precipitation, MM = Missing Value Source: NWS Daily Summary

Daily Weather History Graph

Daily Weather History Graph

Search for Another Location

Airport or City:

Trip Planner

Search our weather history database for the weather conditions in past years. The results will help you decide how hot, cold, wet, or windy it might be!

Date:

Astronomy

Dec. 09, 2013 Rise Set
Actual Time 7:17 AM PST 4:19 PM PST
Civil Twilight 6:45 AM PST 4:51 PM PST
Nautical Twilight 6:08 AM PST 5:27 PM PST
Astronomical Twilight 5:34 AM PST 6:02 PM PST
Moon 12:02 PM PST (12/9) No Moon Set
Length of Visible Light 10h 06m
Length of Day
9h 01m
First Quarter, 52% of the Moon is Illuminated
Dec 9
First Quarter
Dec 17
Full
Dec 25
Last Quarter
Jan 1
New
Jan 7
First Quarter

Hourly Weather History & Observations

Time (PST) Temp. Windchill Dew Point Humidity Pressure Visibility Wind Dir Wind Speed Gust Speed Precip Events Conditions
12:53 AM -18.0 °F -33.0 °F -22.0 °F 82% 30.72 in 10.0 mi West 5.8 mph - N/A   Clear
1:53 AM -16.1 °F - -20.9 °F 79% 30.72 in 10.0 mi Calm Calm - N/A   Clear
2:53 AM -20.0 °F - -25.1 °F 78% 30.74 in 10.0 mi Calm Calm - N/A   Clear
3:53 AM -17.0 °F - -23.1 °F 74% 30.74 in 10.0 mi Calm Calm - N/A   Clear
4:53 AM -18.0 °F -28.5 °F -22.0 °F 82% 30.76 in 10.0 mi SSE 3.5 mph - N/A   Clear
5:53 AM -20.0 °F - -25.1 °F 78% 30.80 in 10.0 mi Calm Calm - N/A   Clear
6:53 AM -16.1 °F -26.2 °F -20.0 °F 82% 30.79 in 10.0 mi WNW 3.5 mph - N/A   Clear
7:53 AM -11.0 °F -24.6 °F -16.1 °F 78% 30.83 in 9.0 mi WSW 5.8 mph - N/A   Clear
8:53 AM -2.0 °F - -8.0 °F 76% 30.79 in 10.0 mi Calm Calm - N/A   Clear
9:53 AM 3.9 °F - -2.0 °F 76% 30.79 in 10.0 mi Calm Calm - N/A   Clear
10:53 AM 6.1 °F - -2.0 °F 69% 30.78 in 10.0 mi Calm Calm - N/A   Clear
11:53 AM 8.1 °F - -0.9 °F 67% 30.74 in 10.0 mi Calm Calm - N/A   Clear
12:53 PM 12.9 °F 6.9 °F -0.9 °F 54% 30.69 in 10.0 mi SE 3.5 mph - N/A   Clear
1:53 PM 12.9 °F 5.2 °F -0.9 °F 54% 30.67 in 10.0 mi SE 4.6 mph - N/A   Clear
2:53 PM 14.0 °F 8.2 °F -2.0 °F 49% 30.67 in 10.0 mi ESE 3.5 mph - N/A   Clear
3:53 PM 12.0 °F - -0.9 °F 56% 30.66 in 10.0 mi Calm Calm - N/A   Clear
4:53 PM 3.9 °F -3.4 °F -4.0 °F 70% 30.69 in 10.0 mi West 3.5 mph - N/A   Clear
5:53 PM 1.9 °F -5.6 °F -5.1 °F 72% 30.69 in 10.0 mi WSW 3.5 mph - N/A   Clear
6:53 PM -0.0 °F - -4.0 °F 83% 30.68 in 10.0 mi Calm Calm - N/A   Clear
7:53 PM -2.9 °F -13.3 °F -7.1 °F 82% 30.67 in 10.0 mi WSW 4.6 mph - N/A   Clear
8:53 PM -2.9 °F -13.3 °F -7.1 °F 82% 30.62 in 10.0 mi West 4.6 mph - N/A   Clear
9:53 PM -2.0 °F -12.2 °F -6.0 °F 83% 30.59 in 10.0 mi WSW 4.6 mph - N/A   Clear
10:53 PM -2.0 °F - -6.0 °F 83% 30.60 in 10.0 mi Calm Calm - N/A   Clear
11:53 PM -2.9 °F -15.0 °F -6.0 °F 87% 30.57 in 10.0 mi West 5.8 mph - N/A   Clear